Tracking 23764 objects as of 18-Oct-2021
HD Live streaming from Space Station
objects crossing your sky now

COSMOS 768

Track COSMOS 768 now!
10-day predictions
COSMOS 768 is classified as:


NORAD ID: 8292
Int'l Code: 1975-086H
Perigee: 1,477.4 km
Apogee: 1,498.7 km
Inclination: 74.0 °
Period: 115.6 minutes
Semi major axis: 7859 km
RCS: 0.6843 m2 (medium)
Launch date: September 17, 1975
Source: Commonwealth of Independent States (former USSR) (CIS)
Launch site: PLESETSK MISSILE AND SPACE COMPLEX (PKMTR)
aabbcc
Your satellite tracking list
Your tracking list is empty




NASA's NSSDC Master Catalog

Two Line Element Set (TLE):
1 08292U 75086H   21290.89099759 -.00000029  00000-0 -89240-4 0  9997
2 08292  74.0108 203.4949 0013545 308.0591 116.9792 12.46080352 96324
Source of the keplerian elements: AFSPC